Погода в Нахичевани

Азербайджан     39°13′15″N   45°24′27″E
темп.,
°C
ветер,
м/с
пор.,
м/с
влажн.,
%
обл.,
%
осадки,
мм/ч
давл.,
гПа
погр.,
м
30 июня, чт
чт3001:00+22в34420 0.0 100887
04:00+21всв22460 0.0 100838
07:00+22в12420 0.0 1009147
10:00+27ююз23280 0.0 10081108
13:00+31ююз34200 0.0 10051895
16:00+33ю75160 0.0 10032328
19:00+31вюв56230 0.0 1003861
22:00+24всв34371 0.0 1006106
1 июля, пт
пт101:00+22всв23400 0.0 100646
04:00+20в22450 0.0 100743
07:00+21вюв12420 0.0 1007118
10:00+26ююз22310 0.0 1006930
13:00+31ююз23230 0.0 10031562
16:00+34ююв55180 0.0 10002089
19:00+32юв55220 0.0 9991024
22:00+24всв343611 0.0 1002131
2 июля, сб
сб201:00+22всв22350 0.0 100436
04:00+20всв22360 0.0 100532
07:00+21в12360 0.0 1006125
10:00+25юз21280 0.0 10051069
13:00+29юз22230 0.0 10031741
16:00+32ю33204 0.0 10012346
19:00+31ююв432275 0.0 10021805
22:00+24в353135 0.0 1006417
3 июля, вс
вс301:00+21в234138 0.0 1008219
04:00+19юв345130 0.0 1009276
07:00+18юв345822 0.0 1011334
10:00+22ю234430 0.0 10111342
13:00+25ююз333547 0.0 10091973
16:00+27ююв543074 0.0 10072304
19:00+23юв66394 0.0 1009796
22:00+18вюв455396 0.0 1013301
4 июля, пн
пн401:00+17вюв235380 0.0 1013175
04:00+16вюв235812 0.0 101589
07:00+16юв22555 0.0 1016239
10:00+21ююз33401 0.0 10151380
13:00+25ююз34307 0.0 10122177
16:00+28ююв43250 0.0 10092755
19:00+25вюв55294 0.0 10101069
22:00+19в34430 0.0 1014133